Location: Peach Mountain Observatory
(42.3967°N, 83.9367°W)
Time: 19:33:06
(UTC-05:00)

S-56A Canister/Altair - Pass Details

Date: 28 January 2020
Orbit: 633 x 2499 km, 38.9° (Epoch: 23 February)

Event Time Altitude Azimuth Distance (km) Brightness Sun altitude
Rises 21:57:09 0° 265° (W) 3,950 11.8 -46.4°
Reaches altitude 10° 22:00:20 10° 262° (W) 2,727 10.8 -46.9°
Enters shadow 22:00:54 12° 261° (W) 2,509 10.5 -47.0°
Maximum altitude 22:06:22 61° 184° (S) 866 - -47.9°
Drops below altitude 10° 22:10:57 10° 104° (ESE) 2,079 - -48.7°
Sets 22:13:05 0° 100° (E) 2,934 - -49.1°
